![]() |
EMODnet Physics ERDDAP
Easier access to scientific data |
log in|
Brought to you by EMODnet Physics |
| Dataset Title: | NDBC - Collection of dew point temperature (DEWT) TimeSeries - IN SITU MultiPointTimeSeriesObservation
|
| Institution: | NDBC (Dataset ID: TS_DEWT_NDBC) |
| Information: | Summary
| License
| FGDC
| ISO 19115
| Metadata
| Background
| Subset
| Data Access Form
| Make a graph
|
| Name | Last modified | Size | Description | |
|---|---|---|---|---|
| Parent Directory | - | - | ||
| 44062_TS_DEWT_012011.nc | 07-Dec-2024 11:58 | 450401 | ||
| 44062_TS_DEWT_012012.nc | 07-Dec-2024 12:02 | 450207 | ||
| 44062_TS_DEWT_012013.nc | 07-Dec-2024 12:07 | 450114 | ||
| 44062_TS_DEWT_012014.nc | 07-Dec-2024 12:23 | 451328 | ||
| 44062_TS_DEWT_012015.nc | 07-Dec-2024 12:28 | 451168 | ||
| 44062_TS_DEWT_012016.nc | 07-Dec-2024 12:37 | 450732 | ||
| 44062_TS_DEWT_012017.nc | 07-Dec-2024 12:45 | 451469 | ||
| 44062_TS_DEWT_012018.nc | 07-Dec-2024 12:49 | 450543 | ||
| 44062_TS_DEWT_012020.nc | 07-Dec-2024 13:10 | 450787 | ||
| 44062_TS_DEWT_012021.nc | 07-Dec-2024 13:15 | 449817 | ||
| 44062_TS_DEWT_012022.nc | 07-Dec-2024 13:23 | 446366 | ||
| 44062_TS_DEWT_012023.nc | 07-Dec-2024 13:36 | 450150 | ||
| 44062_TS_DEWT_022011.nc | 07-Dec-2024 11:58 | 452130 | ||
| 44062_TS_DEWT_022012.nc | 07-Dec-2024 12:02 | 450663 | ||
| 44062_TS_DEWT_022014.nc | 07-Dec-2024 12:24 | 450717 | ||
| 44062_TS_DEWT_022015.nc | 07-Dec-2024 12:28 | 450707 | ||
| 44062_TS_DEWT_022016.nc | 07-Dec-2024 12:39 | 451554 | ||
| 44062_TS_DEWT_022017.nc | 07-Dec-2024 12:45 | 451168 | ||
| 44062_TS_DEWT_022018.nc | 07-Dec-2024 12:50 | 448570 | ||
| 44062_TS_DEWT_022022.nc | 07-Dec-2024 13:25 | 449865 | ||
| 44062_TS_DEWT_022023.nc | 07-Dec-2024 13:37 | 449653 | ||
| 44062_TS_DEWT_032011.nc | 07-Dec-2024 11:59 | 450429 | ||
| 44062_TS_DEWT_032012.nc | 07-Dec-2024 12:03 | 451918 | ||
| 44062_TS_DEWT_032013.nc | 07-Dec-2024 12:08 | 449579 | ||
| 44062_TS_DEWT_032014.nc | 07-Dec-2024 12:24 | 442789 | ||
| 44062_TS_DEWT_032016.nc | 07-Dec-2024 12:41 | 450249 | ||
| 44062_TS_DEWT_032017.nc | 07-Dec-2024 12:45 | 439748 | ||
| 44062_TS_DEWT_032018.nc | 07-Dec-2024 12:51 | 450141 | ||
| 44062_TS_DEWT_032020.nc | 07-Dec-2024 13:11 | 450499 | ||
| 44062_TS_DEWT_032021.nc | 07-Dec-2024 13:15 | 448998 | ||
| 44062_TS_DEWT_032022.nc | 07-Dec-2024 13:27 | 449651 | ||
| 44062_TS_DEWT_032023.nc | 07-Dec-2024 13:37 | 449104 | ||
| 44062_TS_DEWT_042011.nc | 07-Dec-2024 11:59 | 449803 | ||
| 44062_TS_DEWT_042012.nc | 07-Dec-2024 12:03 | 449273 | ||
| 44062_TS_DEWT_042013.nc | 07-Dec-2024 12:08 | 448957 | ||
| 44062_TS_DEWT_042014.nc | 07-Dec-2024 12:25 | 449755 | ||
| 44062_TS_DEWT_042015.nc | 07-Dec-2024 12:28 | 449232 | ||
| 44062_TS_DEWT_042016.nc | 07-Dec-2024 12:42 | 449373 | ||
| 44062_TS_DEWT_042017.nc | 07-Dec-2024 12:46 | 425434 | ||
| 44062_TS_DEWT_042018.nc | 07-Dec-2024 12:53 | 450858 | ||
| 44062_TS_DEWT_042020.nc | 07-Dec-2024 13:11 | 450490 | ||
| 44062_TS_DEWT_042021.nc | 07-Dec-2024 13:16 | 450849 | ||
| 44062_TS_DEWT_042022.nc | 07-Dec-2024 13:29 | 451455 | ||
| 44062_TS_DEWT_042023.nc | 07-Dec-2024 13:38 | 451081 | ||
| 44062_TS_DEWT_052011.nc | 07-Dec-2024 11:59 | 451812 | ||
| 44062_TS_DEWT_052012.nc | 07-Dec-2024 12:04 | 451235 | ||
| 44062_TS_DEWT_052013.nc | 07-Dec-2024 12:09 | 450541 | ||
| 44062_TS_DEWT_052014.nc | 07-Dec-2024 12:25 | 441143 | ||
| 44062_TS_DEWT_052015.nc | 07-Dec-2024 12:29 | 449245 | ||
| 44062_TS_DEWT_052016.nc | 07-Dec-2024 12:42 | 450883 | ||
| 44062_TS_DEWT_052017.nc | 07-Dec-2024 12:46 | 450311 | ||
| 44062_TS_DEWT_052018.nc | 07-Dec-2024 12:55 | 450835 | ||
| 44062_TS_DEWT_052019.nc | 07-Dec-2024 13:08 | 450669 | ||
| 44062_TS_DEWT_052020.nc | 07-Dec-2024 13:12 | 451704 | ||
| 44062_TS_DEWT_052021.nc | 07-Dec-2024 13:16 | 448253 | ||
| 44062_TS_DEWT_052022.nc | 07-Dec-2024 13:31 | 449557 | ||
| 44062_TS_DEWT_052023.nc | 07-Dec-2024 13:38 | 449389 | ||
| 44062_TS_DEWT_062011.nc | 07-Dec-2024 12:00 | 435832 | ||
| 44062_TS_DEWT_062012.nc | 07-Dec-2024 12:04 | 450114 | ||
| 44062_TS_DEWT_062013.nc | 07-Dec-2024 12:11 | 448806 | ||
| 44062_TS_DEWT_062014.nc | 07-Dec-2024 12:25 | 449341 | ||
| 44062_TS_DEWT_062015.nc | 07-Dec-2024 12:29 | 449953 | ||
| 44062_TS_DEWT_062016.nc | 07-Dec-2024 12:43 | 449825 | ||
| 44062_TS_DEWT_062017.nc | 07-Dec-2024 12:46 | 444175 | ||
| 44062_TS_DEWT_062018.nc | 07-Dec-2024 12:56 | 444499 | ||
| 44062_TS_DEWT_062019.nc | 07-Dec-2024 13:08 | 448881 | ||
| 44062_TS_DEWT_062020.nc | 07-Dec-2024 13:12 | 450713 | ||
| 44062_TS_DEWT_062021.nc | 07-Dec-2024 13:17 | 448925 | ||
| 44062_TS_DEWT_062022.nc | 07-Dec-2024 13:33 | 449959 | ||
| 44062_TS_DEWT_062023.nc | 07-Dec-2024 13:39 | 438334 | ||
| 44062_TS_DEWT_072010.nc | 07-Dec-2024 11:55 | 450911 | ||
| 44062_TS_DEWT_072011.nc | 07-Dec-2024 12:00 | 450438 | ||
| 44062_TS_DEWT_072012.nc | 07-Dec-2024 12:05 | 450700 | ||
| 44062_TS_DEWT_072013.nc | 07-Dec-2024 12:12 | 450588 | ||
| 44062_TS_DEWT_072014.nc | 07-Dec-2024 12:26 | 450863 | ||
| 44062_TS_DEWT_072015.nc | 07-Dec-2024 12:30 | 450860 | ||
| 44062_TS_DEWT_072016.nc | 07-Dec-2024 12:43 | 451597 | ||
| 44062_TS_DEWT_072017.nc | 07-Dec-2024 12:47 | 441529 | ||
| 44062_TS_DEWT_072018.nc | 07-Dec-2024 12:58 | 450139 | ||
| 44062_TS_DEWT_072019.nc | 07-Dec-2024 13:09 | 450134 | ||
| 44062_TS_DEWT_072020.nc | 07-Dec-2024 13:13 | 451208 | ||
| 44062_TS_DEWT_072021.nc | 07-Dec-2024 13:18 | 450352 | ||
| 44062_TS_DEWT_072022.nc | 07-Dec-2024 13:33 | 1149954 | ||
| 44062_TS_DEWT_072023.nc | 07-Dec-2024 13:39 | 429768 | ||
| 44062_TS_DEWT_082010.nc | 07-Dec-2024 11:56 | 1624429 | ||
| 44062_TS_DEWT_082011.nc | 07-Dec-2024 12:00 | 1626689 | ||
| 44062_TS_DEWT_082012.nc | 07-Dec-2024 12:05 | 1477069 | ||
| 44062_TS_DEWT_082013.nc | 07-Dec-2024 12:14 | 1626914 | ||
| 44062_TS_DEWT_082014.nc | 07-Dec-2024 12:26 | 1626677 | ||
| 44062_TS_DEWT_082015.nc | 07-Dec-2024 12:30 | 1625686 | ||
| 44062_TS_DEWT_082016.nc | 07-Dec-2024 12:43 | 1626212 | ||
| 44062_TS_DEWT_082017.nc | 07-Dec-2024 12:47 | 1829451 | ||
| 44062_TS_DEWT_082018.nc | 07-Dec-2024 13:00 | 1826676 | ||
| 44062_TS_DEWT_082019.nc | 07-Dec-2024 13:09 | 1826042 | ||
| 44062_TS_DEWT_082020.nc | 07-Dec-2024 13:13 | 1826365 | ||
| 44062_TS_DEWT_082021.nc | 07-Dec-2024 13:18 | 1675238 | ||
| 44062_TS_DEWT_082022.nc | 07-Dec-2024 13:34 | 1679757 | ||
| 44062_TS_DEWT_082023.nc | 07-Dec-2024 13:40 | 1833461 | ||
| 44062_TS_DEWT_092010.nc | 07-Dec-2024 11:57 | 1834848 | ||
| 44062_TS_DEWT_092011.nc | 07-Dec-2024 12:01 | 1841374 | ||
| 44062_TS_DEWT_092012.nc | 07-Dec-2024 12:05 | 4690136 | ||
| 44062_TS_DEWT_092013.nc | 07-Dec-2024 12:16 | 1150951 | ||
| 44062_TS_DEWT_092014.nc | 07-Dec-2024 12:26 | 908330 | ||
| 44062_TS_DEWT_092015.nc | 07-Dec-2024 12:30 | 590847 | ||
| 44062_TS_DEWT_092016.nc | 07-Dec-2024 12:44 | 1472907 | ||
| 44062_TS_DEWT_092017.nc | 07-Dec-2024 12:47 | 1469812 | ||
| 44062_TS_DEWT_092018.nc | 07-Dec-2024 13:02 | 1467973 | ||
| 44062_TS_DEWT_092019.nc | 07-Dec-2024 13:09 | 1469891 | ||
| 44062_TS_DEWT_092020.nc | 07-Dec-2024 13:13 | 1473497 | ||
| 44062_TS_DEWT_092021.nc | 07-Dec-2024 13:19 | 1470000 | ||
| 44062_TS_DEWT_092022.nc | 07-Dec-2024 13:34 | 1469305 | ||
| 44062_TS_DEWT_092023.nc | 07-Dec-2024 13:41 | 1646568 | ||
| 44062_TS_DEWT_102010.nc | 07-Dec-2024 11:57 | 1662686 | ||
| 44062_TS_DEWT_102011.nc | 07-Dec-2024 12:01 | 1649228 | ||
| 44062_TS_DEWT_102012.nc | 07-Dec-2024 12:06 | 1654040 | ||
| 44062_TS_DEWT_102013.nc | 07-Dec-2024 12:18 | 1646288 | ||
| 44062_TS_DEWT_102014.nc | 07-Dec-2024 12:27 | 1661259 | ||
| 44062_TS_DEWT_102015.nc | 07-Dec-2024 12:32 | 1657712 | ||
| 44062_TS_DEWT_102016.nc | 07-Dec-2024 12:44 | 1657295 | ||
| 44062_TS_DEWT_102017.nc | 07-Dec-2024 12:48 | 1658205 | ||
| 44062_TS_DEWT_102018.nc | 07-Dec-2024 13:04 | 3280392 | ||
| 44062_TS_DEWT_102019.nc | 07-Dec-2024 13:10 | 1151332 | ||
| 44062_TS_DEWT_102020.nc | 07-Dec-2024 13:14 | 1475237 | ||
| 44062_TS_DEWT_102021.nc | 07-Dec-2024 13:19 | 1470730 | ||
| 44062_TS_DEWT_102022.nc | 07-Dec-2024 13:35 | 1477618 | ||
| 44062_TS_DEWT_102023.nc | 07-Dec-2024 13:41 | 1626668 | ||
| 44062_TS_DEWT_112010.nc | 07-Dec-2024 11:57 | 1477747 | ||
| 44062_TS_DEWT_112011.nc | 07-Dec-2024 12:02 | 1624405 | ||
| 44062_TS_DEWT_112012.nc | 07-Dec-2024 12:06 | 1626842 | ||
| 44062_TS_DEWT_112013.nc | 07-Dec-2024 12:20 | 1626885 | ||
| 44062_TS_DEWT_112014.nc | 07-Dec-2024 12:27 | 1707662 | ||
| 44062_TS_DEWT_112015.nc | 07-Dec-2024 12:34 | 1665760 | ||
| 44062_TS_DEWT_112016.nc | 07-Dec-2024 12:44 | 1821607 | ||
| 44062_TS_DEWT_112017.nc | 07-Dec-2024 12:48 | 1825096 | ||
| 44062_TS_DEWT_112018.nc | 07-Dec-2024 13:05 | 1826515 | ||
| 44062_TS_DEWT_112019.nc | 07-Dec-2024 13:10 | 1681838 | ||
| 44062_TS_DEWT_112020.nc | 07-Dec-2024 13:14 | 1676871 | ||
| 44062_TS_DEWT_112021.nc | 07-Dec-2024 13:20 | 1253219 | ||
| 44062_TS_DEWT_112022.nc | 07-Dec-2024 13:35 | 1836220 | ||
| 44062_TS_DEWT_112023.nc | 07-Dec-2024 13:42 | 1837517 | ||
| 44062_TS_DEWT_122010.nc | 07-Dec-2024 11:58 | 4395908 | ||
| 44062_TS_DEWT_122011.nc | 07-Dec-2024 12:02 | 1156896 | ||
| 44062_TS_DEWT_122012.nc | 07-Dec-2024 12:07 | 1473551 | ||
| 44062_TS_DEWT_122013.nc | 07-Dec-2024 12:21 | 1468236 | ||
| 44062_TS_DEWT_122014.nc | 07-Dec-2024 12:27 | 1476872 | ||
| 44062_TS_DEWT_122015.nc | 07-Dec-2024 12:35 | 1473112 | ||
| 44062_TS_DEWT_122016.nc | 07-Dec-2024 12:44 | 1476789 | ||
| 44062_TS_DEWT_122017.nc | 07-Dec-2024 12:49 | 1477057 | ||
| 44062_TS_DEWT_122018.nc | 07-Dec-2024 13:07 | 1477049 | ||
| 44062_TS_DEWT_122019.nc | 07-Dec-2024 13:10 | 1477015 | ||
| 44062_TS_DEWT_122020.nc | 07-Dec-2024 13:15 | 1685304 | ||
| 44062_TS_DEWT_122021.nc | 07-Dec-2024 13:22 | 1659062 | ||
| 44062_TS_DEWT_122022.nc | 07-Dec-2024 13:36 | 1665089 | ||
| 44062_TS_DEWT_122023.nc | 07-Dec-2024 13:42 | 1672750 | ||